Overview Statistics Trail Chart Weather Telemetry Raw packets
 

This is the latest recevied weather packets stored in our database for station/object SV9TNF-57. If no packets are shown the sender has not sent any weather packets the latest 10 day(s).

<< 92 93 94 95 96 97 98 >>
Time Temp. Humidity Pressure Rain* Wind** Luminosity Snow
1787980902 25.56° C 63% 996.2 hPa 0 mm 14.31 m/s, 9° - -
1787980602 25.56° C 66% 996.1 hPa 0 mm 8.49 m/s, 318° - -
1787980302 25.56° C 66% 996.2 hPa 0 mm 2.68 m/s, 356° - -
1787980002 25° C 66% 996 hPa 0 mm 6.71 m/s, 0° - -
1787979701 25° C 67% 996.2 hPa 0 mm 5.36 m/s, 81° - -
1787979401 25° C 70% 996.2 hPa 0 mm 9.83 m/s, 314° - -
1787979101 25° C 72% 995.9 hPa 0 mm 8.49 m/s, 342° - -
1787978801 25° C 74% 996.2 hPa 0 mm 8.05 m/s, 346° - -
1787978501 25° C 74% 995.8 hPa 0 mm 15.65 m/s, 9° - -
1787978201 25° C 75% 995.7 hPa 0 mm 5.81 m/s, 322° - -
1787977901 25° C 75% 995.8 hPa 0 mm 12.07 m/s, 169° - -
1787977601 25° C 75% 995.7 hPa 0 mm 6.26 m/s, 8° - -
1787977301 25° C 75% 996 hPa 0 mm 4.47 m/s, 320° - -
1787977000 25° C 74% 995.8 hPa 0 mm 6.71 m/s, 340° - -
1787976701 25° C 74% 995.7 hPa 0 mm 1.34 m/s, 320° - -
1787976400 25° C 73% 995.8 hPa 0 mm 9.83 m/s, 64° - -
1787976100 25° C 73% 995.9 hPa 0 mm 16.99 m/s, 294° - -
1787975800 25° C 73% 995.7 hPa 0 mm 9.39 m/s, 348° - -
1787975500 25° C 73% 995.8 hPa 0 mm 9.39 m/s, 282° - -
1787975200 25° C 72% 995.5 hPa 0 mm 8.05 m/s, 25° - -
1787974900 25° C 73% 995.2 hPa 0 mm 10.28 m/s, 312° - -
1787974600 25° C 73% 995.6 hPa 0 mm 8.94 m/s, 335° - -
1787974300 25° C 73% 995.6 hPa 0 mm 8.94 m/s, 351° - -
1787973999 25° C 73% 995.5 hPa 0 mm 6.71 m/s, 287° - -
1787973700 25° C 73% 995.3 hPa 0 mm 15.65 m/s, 4° - -

* Rain latest hour (hover to see other rain measurements)
** Current wind speed in m/s (hover to see current wind gust speed)